Location: *
(45.5667°S, 177.5167°W)
Time: 16:41:59
(UTC+00:00)

SL-16 R/B - Pass Details

Date: 29 May 2022
Orbit: 842 x 846 km, 71.0° (Epoch: 06 July)

Event Time Altitude Azimuth Distance (km) Brightness Sun altitude
Rises 08:07:48 0° 218° (SW) 3,436 5.9 -39.6°
Reaches altitude 10° 08:10:48 10° 233° (SW) 2,492 5.2 -40.1°
Enters shadow 08:14:56 21° 280° (W) 1,813 4.3 -40.8°
